Simultaneous Nadir Overpasses (SNOs) Predictions

Prediction of SNOs between GOES-16 and METOP-B Satellite Orbit:

Table of predicted SNOs for the next 14.0 days since TLE Epoch: 7/15/2024
Index Date Time (GOES-16) GOES-16 Lat,Lon METOP-B Lat,Lon Distance(km) Time Diff (sec)
1 07/16/2024 02:27:36 -0.01, -75.20 -0.42, -76.92 197.27 80
2 07/17/2024 02:09:40 -0.02, -75.20 0.70, -71.95 369.93 80
3 07/18/2024 14:25:56 0.02, -75.20 0.30, -76.55 152.96 80
4 07/19/2024 14:07:58 0.02, -75.20 -0.76, -71.56 414.32 80
5 07/21/2024 02:24:24 -0.02, -75.20 -0.23, -76.20 113.21 80
6 07/22/2024 02:06:27 -0.02, -75.20 0.89, -71.22 454.17 80
7 07/23/2024 14:22:43 0.00, -75.21 0.16, -75.80 68.28 80
8 07/24/2024 14:04:46 0.00, -75.22 -0.95, -70.83 499.61 80
9 07/26/2024 02:23:51 0.01, -75.23 -0.03, -75.47 26.60 80
10 07/28/2024 14:22:10 -0.00, -75.26 -0.03, -75.07 20.73 80
